Location: Góry Miechowskie
(50.3599°N, 20.1803°E)
Time: 10:37:30
(UTC+00:00)

Transit 2A Rocket - All Passes

Search period start: 07 September 2024 00:00
Search period end: 17 September 2024 00:00
Orbit: 582 x 910 km, 66.7° (Epoch: 06 September)

Date Brightness Start Highest point End Pass type
(mag) Time Alt. Az. Time Alt. Az. Time Alt. Az.
07 Sep - 00:18:25 10° SSW 00:24:16 68° ESE 00:30:21 10° NE visible
07 Sep - 02:01:46 10° WSW 02:07:17 36° NW 02:12:53 10° NNE visible
07 Sep - 03:47:30 10° NW 03:51:35 18° NNW 03:55:40 10° NNE daylight
07 Sep - 05:32:17 10° NNW 05:36:26 19° NNE 05:40:30 10° ENE daylight
07 Sep - 07:15:04 10° NNW 07:20:40 39° NE 07:25:58 10° ESE daylight
07 Sep - 08:57:41 10° NW 09:03:31 57° WSW 09:08:53 10° SSE daylight
07 Sep - 10:43:48 10° W 10:44:41 10° W 10:45:34 10° WSW daylight
07 Sep - 23:34:34 10° S 23:40:07 44° ESE 23:45:52 10° NE visible
08 Sep - 01:16:54 10° WSW 01:22:41 49° NW 01:28:37 10° NNE visible
08 Sep - 03:02:10 10° WNW 03:06:41 21° NNW 03:11:10 10° NNE visible
08 Sep - 04:47:37 10° NNW 04:51:29 17° N 04:55:17 10° NE daylight
08 Sep - 06:30:46 10° NNW 06:36:00 29° NNE 06:40:58 10° E daylight
08 Sep - 08:13:17 10° NW 08:19:18 88° SW 08:24:49 10° SE daylight
08 Sep - 09:57:08 10° WNW 10:00:56 18° WSW 10:04:34 10° SW daylight
08 Sep - 22:51:10 10° SSE 22:56:06 28° ESE 23:01:11 10° NE visible
09 Sep - 00:32:16 10° SW 00:38:13 70° NW 00:44:20 10° NE visible
09 Sep - 02:16:53 10° W 02:21:49 25° NNW 02:26:46 10° NNE visible
09 Sep - 04:02:41 10° NW 04:06:29 17° N 04:10:14 10° NE daylight
09 Sep - 05:46:26 10° NNW 05:51:12 23° NNE 05:55:47 10° ENE daylight
09 Sep - 07:28:58 10° NW 07:34:55 63° NE 07:40:26 10° SE daylight
09 Sep - 09:12:05 10° NW 09:17:03 29° WSW 09:21:42 10° S daylight
09 Sep - 22:08:23 10° SE 22:12:12 18° ESE 22:16:05 10° ENE visible
09 Sep - 23:47:55 10° SSW 23:53:51 81° SE 00:00:00 10° NE visible
10 Sep - 01:31:42 10° W 01:37:03 32° NNW 01:42:28 10° NNE visible
10 Sep - 03:17:32 10° NW 03:21:29 17° N 03:25:24 10° NNE visible
10 Sep - 05:02:00 10° NNW 05:06:19 20° NNE 05:10:30 10° ENE daylight
10 Sep - 06:44:40 10° NNW 06:50:24 44° NE 06:55:46 10° ESE daylight
10 Sep - 08:27:25 10° NW 08:33:01 47° WSW 08:38:14 10° S daylight
10 Sep - 21:27:40 10° ESE 21:28:25 10° E 21:29:11 10° E visible
10 Sep - 23:03:54 10° SSW 23:09:38 54° ESE 23:15:34 10° NE visible
11 Sep - 00:46:42 10° WSW 00:52:24 42° NW 00:58:11 10° NNE visible
11 Sep - 02:32:13 10° WNW 02:36:31 19° NNW 02:40:48 10° NNE visible
11 Sep - 04:17:24 10° NNW 04:21:22 17° N 04:25:13 10° NE daylight
11 Sep - 06:00:23 10° NNW 06:05:46 33° NE 06:10:51 10° E daylight
11 Sep - 07:42:55 10° NW 07:48:52 73° WSW 07:54:18 10° SSE daylight
11 Sep - 09:27:21 10° WNW 09:30:17 14° WSW 09:33:06 10° SW daylight
11 Sep - 22:20:16 10° S 22:25:32 35° ESE 22:30:58 10° NE visible
12 Sep - 00:01:56 10° SW 00:07:51 59° NW 00:13:53 10° NNE visible
12 Sep - 01:46:52 10° WNW 01:51:38 23° NNW 01:56:22 10° NNE visible
12 Sep - 03:32:35 10° NW 03:36:21 17° N 03:40:04 10° NE visible
12 Sep - 05:16:03 10° NNW 05:21:00 25° NNE 05:25:43 10° E daylight
12 Sep - 06:58:33 10° NW 07:04:32 75° NE 07:10:02 10° SE daylight
12 Sep - 08:41:55 10° WNW 08:46:27 24° WSW 08:50:41 10° SSW daylight
12 Sep - 21:37:09 10° SSE 21:41:33 22° ESE 21:46:05 10° ENE visible
12 Sep - 23:17:26 10° SW 23:23:25 85° NW 23:29:34 10° NE visible
13 Sep - 01:01:37 10° W 01:06:48 28° NNW 01:12:00 10° NNE visible
13 Sep - 02:47:30 10° NW 02:51:20 17° N 02:55:08 10° NNE visible
13 Sep - 04:31:39 10° NNW 04:36:07 21° NNE 04:40:27 10° ENE daylight
13 Sep - 06:14:14 10° NNW 06:20:03 51° NE 06:25:28 10° ESE daylight
13 Sep - 07:57:07 10° NW 08:02:28 38° WSW 08:07:25 10° S daylight
13 Sep - 20:55:00 10° SE 20:57:43 13° E 21:00:28 10° ENE visible
13 Sep - 22:33:15 10° SSW 22:39:07 65° ESE 22:45:10 10° NE visible
14 Sep - 00:16:31 10° WSW 00:22:05 37° NW 00:27:42 10° NNE visible
14 Sep - 02:02:13 10° NW 02:06:20 18° NNW 02:10:26 10° NNE visible
14 Sep - 03:47:07 10° NNW 03:51:11 18° NNE 03:55:08 10° NE daylight
14 Sep - 05:29:55 10° NNW 05:35:27 37° NE 05:40:38 10° ESE daylight
14 Sep - 07:12:32 10° NW 07:18:20 60° WSW 07:23:40 10° SSE daylight
14 Sep - 08:58:08 10° W 08:59:32 11° W 09:00:56 10° WSW daylight
14 Sep - 21:49:24 10° S 21:54:57 42° ESE 22:00:38 10° NE visible
14 Sep - 23:31:36 10° WSW 23:37:27 51° NW 23:43:24 10° NNE visible
15 Sep - 01:16:50 10° WNW 01:21:23 21° NNW 01:25:54 10° NNE visible
15 Sep - 03:02:22 10° NW 03:06:11 17° N 03:09:55 10° NE visible
15 Sep - 04:45:36 10° NNW 04:50:43 28° NNE 04:55:34 10° E daylight
15 Sep - 06:28:06 10° NW 06:34:03 89° NE 06:39:31 10° SE daylight
15 Sep - 08:11:50 10° WNW 08:15:44 19° WSW 08:19:27 10° SSW daylight
15 Sep - 21:06:01 10° SSE 21:10:54 27° ESE 21:15:53 10° NE visible
15 Sep - 22:46:58 10° SW 22:52:57 73° NW 22:59:05 10° NE visible
16 Sep - 00:31:30 10° W 00:36:30 26° NNW 00:41:30 10° NNE visible
16 Sep - 02:17:22 10° NW 02:21:08 17° N 02:24:51 10° NE visible
16 Sep - 04:01:12 10° NNW 04:05:52 23° NNE 04:10:20 10° ENE daylight
16 Sep - 05:43:44 10° NNW 05:49:38 60° NE 05:55:04 10° SE daylight
16 Sep - 07:26:48 10° NW 07:31:49 31° WSW 07:36:28 10° S daylight
16 Sep - 20:23:19 10° SE 20:26:58 17° ESE 20:30:41 10° ENE visible
16 Sep - 22:02:36 10° SSW 22:08:35 78° ESE 22:14:42 10° NE visible
16 Sep - 23:46:18 10° W 23:51:43 33° NW 23:57:10 10° NNE visible
